Location: 相模原市立博物館
(35.5593°N, 139.3931°E)
Time: 15:12:18
(UTC+09:00)

XW-2D - Visible Passes

Search period start: 27 January 2022 00:00
Search period end: 06 February 2022 00:00
Orbit: 502 x 522 km, 97.5° (Epoch: 26 January)

Date Brightness Start Highest point End Pass type
(mag) Time Alt. Az. Time Alt. Az. Time Alt. Az.
27 Jan ? 05:16:20 10° NNE 05:19:48 38° E 05:23:15 10° SSE visible
27 Jan ? 17:26:43 10° SSW 17:30:11 36° W 17:33:39 10° NNW visible
28 Jan ? 05:00:46 10° NE 05:03:46 23° E 05:06:46 10° SSE visible
29 Jan ? 04:45:35 10° ENE 04:47:43 15° E 04:49:50 10° SE visible
30 Jan ? 06:02:15 10° N 06:05:48 45° WNW 06:09:20 10° SSW visible
31 Jan ? 05:46:10 10° N 05:49:51 78° WNW 05:53:32 10° SSW visible
31 Jan ? 17:58:13 10° SW 18:00:22 15° W 18:02:31 10° WNW visible
01 Feb ? 05:30:13 10° NNE 05:33:52 61° E 05:37:32 10° S visible
01 Feb ? 17:41:16 10° SSW 17:44:17 23° W 17:47:19 10° NW visible
02 Feb ? 05:14:26 10° NNE 05:17:51 35° E 05:21:17 10° SSE visible
03 Feb ? 04:58:51 10° NE 05:01:48 22° E 05:04:44 10° SSE visible
04 Feb ? 04:43:44 10° ENE 04:45:43 14° E 04:47:41 10° SE visible
05 Feb ? 06:00:12 10° N 06:03:47 48° WNW 06:07:21 10° SSW visible
